Flag for U.S.A. Weather past 2 weeks in Kennebunk, Maine, U.S.A.

Now
84 °F

Sunny.


Feels Like: 86 °F
Forecast: 56 / 80 °F
Wind: 7 mph from West

Location: Sanford Municipal

Current Time: Jul 22, 2014 at 11:55:47 AM

Latest Report: Jul 22, 2014 at 11:15 AM


Visibility: 8 mi

Pressure: 30.11 "Hg

Humidity: 51%

Dew point: 64 °F

Location of KennebunkLocation

Historic Weather in Kennebunk — Graph

°F

Kennebunk temperature yesterday

Maximum temperature yesterday: 77 °F (at 1:15 PM)
Minimum temperature yesterday: 48 °F (at 5:15 AM)
Average temperature yesterday: 64 °F

Past Weeks' High & Low Weather Summary

 TemperatureHumidityPressure
High88 °F (Jul 8, 2:35 PM)94% (Jul 8, 4:55 AM)30.28 "Hg (Jul 8, 4:55 AM)
Low48 °F (Jul 21, 5:15 AM)34% (Jul 10, 12:55 PM)29.62 "Hg (Jul 9, 2:55 AM)
Average70 °F69%30.00 "Hg
* Reported Jul 7 10:15 AM — Jul 22 10:55 AM, Kennebunk, Weather by CustomWeather, © 2014

Note: Actual official high and low records may vary slightly from our data, if they occured in-between our weather recording intervals... More about our weather records

Advertising

Kennebunk weather history for previous 24 hours

 ConditionsComfort  
Time TempWeatherWind HumidityBarometerVisibility
10:55 AM
Jul 22
84 °FSunny.5 mph51%30.12 "Hg10 mi
10:35 AM84 °FSunny.8 mph51%30.11 "Hg10 mi
10:15 AM81 °FSunny.3 mph58%30.11 "Hg10 mi
9:55 AM81 °FSunny.No wind54%30.11 "Hg10 mi
9:35 AM79 °FSunny.5 mph58%30.11 "Hg10 mi
9:15 AM77 °FSunny.5 mph61%30.11 "Hg10 mi
8:55 AM75 °FSunny.3 mph61%30.12 "Hg10 mi
8:35 AM72 °FSunny.No wind69%30.12 "Hg10 mi
8:15 AM70 °FSunny.5 mph73%30.13 "Hg10 mi
7:55 AM70 °FSunny.No wind69%30.13 "Hg10 mi
7:35 AM64 °FSunny.No wind78%30.13 "Hg10 mi
7:15 AM61 °FSunny.No wind83%30.13 "Hg10 mi
6:55 AM59 °FSunny.No wind88%30.13 "Hg10 mi
6:35 AM57 °FSunny.No wind88%30.13 "Hg10 mi
6:15 AM55 °FClear.No wind88%30.13 "Hg10 mi
5:55 AM55 °FClear.No wind82%30.13 "Hg10 mi
5:35 AM54 °FClear.No wind82%30.13 "Hg10 mi
4:55 AM54 °FClear.No wind88%30.13 "Hg10 mi
4:35 AM54 °FClear.No wind82%30.13 "Hg10 mi
4:15 AM54 °FClear.No wind82%30.13 "Hg6 mi
3:55 AM55 °FClear.No wind82%30.12 "Hg10 mi
3:35 AM55 °FClear.No wind82%30.12 "Hg10 mi
3:15 AM55 °FClear.No wind82%30.13 "Hg10 mi
2:55 AM55 °FClear.No wind82%30.13 "Hg10 mi
2:35 AM55 °FClear.No wind88%30.13 "Hg9 mi
2:15 AM55 °FClear.No wind88%30.14 "Hg10 mi
1:55 AM55 °FClear.No wind88%30.14 "Hg9 mi
1:35 AM55 °FClear.No wind88%30.14 "Hg10 mi
1:15 AM57 °FClear.No wind82%30.15 "Hg10 mi
12:55 AM55 °FClear.No wind88%30.15 "Hg10 mi
12:35 AM57 °FClear.No wind82%30.16 "Hg10 mi
12:15 AM57 °FClear.No wind88%30.15 "Hg10 mi
11:55 PM
Jul 21
57 °FClear.3 mph88%30.16 "Hg9 mi
11:35 PM57 °FClear.3 mph88%30.16 "Hg10 mi
10:55 PM59 °FClear.No wind82%30.16 "Hg10 mi
10:35 PM59 °FClear.No wind82%30.16 "Hg10 mi
10:15 PM61 °FClear.No wind83%30.16 "Hg10 mi
9:55 PM61 °FClear.No wind83%30.17 "Hg10 mi
9:35 PM61 °FClear.No wind83%30.17 "Hg10 mi
9:15 PM63 °FSunny.No wind77%30.17 "Hg10 mi
8:55 PM63 °FSunny.No wind77%30.16 "Hg10 mi
8:35 PM64 °FSunny.No wind78%30.16 "Hg10 mi
8:15 PM66 °FSunny.No wind73%30.16 "Hg10 mi
7:55 PM68 °FSunny.No wind69%30.15 "Hg10 mi
7:35 PM70 °FSunny.No wind64%30.15 "Hg10 mi
7:15 PM70 °FSunny.3 mph64%30.15 "Hg10 mi
6:55 PM72 °FSunny.3 mph65%30.15 "Hg10 mi
6:35 PM72 °FSunny.3 mph65%30.15 "Hg10 mi
6:15 PM72 °FSunny.No wind61%30.15 "Hg10 mi
5:55 PM72 °FSunny.5 mph61%30.15 "Hg10 mi
5:35 PM72 °FSunny.5 mph53%30.15 "Hg10 mi
5:15 PM73 °FSunny.No wind53%30.16 "Hg10 mi
4:55 PM73 °FSunny.6 mph50%30.16 "Hg10 mi
4:35 PM73 °FSunny.5 mph53%30.16 "Hg10 mi
4:15 PM73 °FSunny.7 mph53%30.16 "Hg10 mi
3:55 PM73 °FSunny.5 mph57%30.16 "Hg10 mi
3:35 PM75 °FSunny.5 mph54%30.17 "Hg10 mi
3:15 PM75 °FSunny.6 mph54%30.16 "Hg10 mi
2:55 PM75 °FSunny.8 mph54%30.17 "Hg10 mi
2:35 PM75 °FSunny.6 mph54%30.17 "Hg10 mi
2:15 PM75 °FScattered clouds.6 mph57%30.18 "Hg10 mi
1:55 PM75 °FSunny.7 mph54%30.18 "Hg10 mi
1:35 PM75 °FSunny.6 mph47%30.18 "Hg10 mi
1:15 PM77 °FSunny.6 mph44%30.18 "Hg10 mi
12:55 PM75 °FSunny.6 mph44%30.19 "Hg10 mi
12:35 PM75 °FSunny.3 mph47%30.19 "Hg10 mi
12:15 PM75 °FSunny.3 mph47%30.19 "Hg10 mi
11:55 AM73 °FSunny.5 mph50%30.21 "Hg10 mi
11:35 AM73 °FSunny.No wind50%30.21 "Hg10 mi
11:15 AM73 °FSunny.5 mph53%30.22 "Hg10 mi
Weather by CustomWeather, © 2014

See weather overviewHow to use our weather pages